Weather History for KGFK - April, 2013

Change the Weather History Date:

Wednesday, April 17, 2013

  Actual Average Record
Temperature  
Mean Temperature 33 °F 43 °F  
Max Temperature 36 °F 55 °F 80 °F (1977)
Min Temperature 29 °F 31 °F 11 °F (1953)
Degree Days  
Heating Degree Days 32 22  
Month to date heating degree days 636 450  
Since 1 July heating degree days 9203 8835  
Cooling Degree Days 0 0  
Month to date cooling degree days 0 0  
Year to date cooling degree days 0 0  
Moisture  
Dew Point 27 °F    
Average Humidity 84    
Maximum Humidity 92    
Minimum Humidity 75    
Precipitation  
Precipitation 0.02 in 0.03 in 0.47 in (1967)
Month to date precipitation 0.70 0.49  
Year to date precipitation 2.47 2.52  
Snow  
Snow T in 0.00 in 5.00 in (1967)
Month to date snowfall 6.5 1.8  
Since 1 July snowfall 50.0 46.2  
Snow Depth 3.00 in    
Sea Level Pressure  
Sea Level Pressure 30.29 in    
Wind  
Wind Speed 7 mph (NNW)    
Max Wind Speed 15 mph    
Max Gust Speed 17 mph    
Visibility 8 miles    
Events Snow    
T = Trace of Precipitation, MM = Missing Value Source: NWS Daily Summary

Daily Weather History Graph

Daily Weather History Graph

Search for Another Location

Airport or City:

Trip Planner

Search our weather history database for the weather conditions in past years. The results will help you decide how hot, cold, wet, or windy it might be!

Date:

Astronomy

Apr. 17, 2013 Rise Set
Actual Time 6:35 AM CDT 8:22 PM CDT
Civil Twilight 6:02 AM CDT 8:55 PM CDT
Nautical Twilight 5:21 AM CDT 9:35 PM CDT
Astronomical Twilight 4:37 AM CDT 10:20 PM CDT
Moon 11:41 AM CDT (4/17) 2:10 AM CDT (4/17)
Length of Visible Light 14h 53m
Length of Day
13h 47m
Waxing Crescent, 42% of the Moon is Illuminated
Apr 17
Waxing Crescent
Apr 18
First Quarter
Apr 25
Full
May 2
Last Quarter
May 9
New

Hourly Weather History & Observations

Time (CDT) Temp. Windchill Dew Point Humidity Pressure Visibility Wind Dir Wind Speed Gust Speed Precip Events Conditions
12:53 AM 28.9 °F 23.9 °F 26.1 °F 89% 30.40 in 10.0 mi NW 4.6 mph - N/A   Overcast
1:53 AM 28.9 °F 21.1 °F 25.0 °F 85% 30.40 in 10.0 mi NW 8.1 mph - N/A   Overcast
2:53 AM 28.9 °F 22.8 °F 24.1 °F 82% 30.40 in 10.0 mi WNW 5.8 mph - N/A   Overcast
3:53 AM 28.9 °F 21.1 °F 24.1 °F 82% 30.38 in 10.0 mi NNW 8.1 mph - 0.00 in   Overcast
4:53 AM 28.9 °F 25.2 °F 25.0 °F 85% 30.38 in 10.0 mi NNW 3.5 mph - N/A   Overcast
5:53 AM 28.9 °F 23.9 °F 25.0 °F 85% 30.37 in 10.0 mi NW 4.6 mph - N/A   Overcast
6:53 AM 28.9 °F - 25.0 °F 85% 30.34 in 10.0 mi Calm Calm - 0.00 in Snow Light Snow
7:53 AM 28.9 °F 23.9 °F 25.0 °F 85% 30.33 in 5.0 mi NW 4.6 mph - 0.00 in Snow Light Snow
8:53 AM 30.2 °F 26.7 °F 26.6 °F 86% 30.29 in 9.0 mi NNW 3.5 mph - N/A   Overcast
9:49 AM 32.0 °F - 26.6 °F 80% 30.31 in 2.0 mi Calm Calm - 0.01 in Snow Light Snow
9:53 AM 32.0 °F - 27.0 °F 82% 30.35 in 1.8 mi Calm Calm - 0.01 in Snow Light Snow
10:03 AM 30.2 °F - 28.4 °F 93% 30.31 in 1.5 mi Calm Calm - 0.00 in Snow Light Snow
10:53 AM 32.0 °F 28.7 °F 28.0 °F 85% 30.32 in 1.5 mi NNW 3.5 mph - 0.01 in Snow Light Snow
11:04 AM 33.8 °F 30.8 °F 28.4 °F 81% 30.28 in 1.5 mi NNW 3.5 mph - N/A Snow Light Snow
11:17 AM 33.8 °F 30.8 °F 28.4 °F 81% 30.28 in 4.0 mi NNW 3.5 mph - 0.00 in Snow Light Snow
11:53 AM 34.0 °F - 28.9 °F 82% 30.32 in 6.0 mi Calm Calm - 0.00 in Snow Light Snow
12:53 PM 34.0 °F 31.0 °F 28.9 °F 82% 30.30 in 7.0 mi North 3.5 mph - 0.00 in   Overcast
1:22 PM 33.8 °F 27.7 °F 28.4 °F 81% 30.24 in 10.0 mi NNW 6.9 mph - N/A   Overcast
1:53 PM 35.1 °F 29.3 °F 28.9 °F 78% 30.26 in 10.0 mi North 6.9 mph - N/A   Mostly Cloudy
2:25 PM 33.8 °F 25.8 °F 28.4 °F 81% 30.21 in 10.0 mi NNW 10.4 mph - N/A   Overcast
2:53 PM 34.0 °F 25.0 °F 28.0 °F 79% 30.25 in 10.0 mi NNW 12.7 mph - N/A   Overcast
3:53 PM 34.0 °F 25.5 °F 28.0 °F 79% 30.23 in 10.0 mi North 11.5 mph - N/A   Overcast
4:53 PM 35.1 °F 27.4 °F 28.0 °F 76% 30.22 in 10.0 mi NNE 10.4 mph - N/A   Overcast
5:53 PM 35.1 °F 26.9 °F 28.0 °F 76% 30.22 in 10.0 mi North 11.5 mph - N/A   Mostly Cloudy
6:53 PM 34.0 °F 25.5 °F 28.0 °F 79% 30.21 in 10.0 mi North 11.5 mph - N/A   Overcast
7:53 PM 33.1 °F 24.9 °F 28.0 °F 82% 30.22 in 10.0 mi North 10.4 mph - N/A   Overcast
8:53 PM 32.0 °F 23.0 °F 28.0 °F 85% 30.19 in 10.0 mi North 11.5 mph - N/A   Overcast
9:53 PM 30.9 °F 22.2 °F 26.1 °F 82% 30.21 in 10.0 mi North 10.4 mph - N/A   Mostly Cloudy
10:53 PM 30.9 °F 22.2 °F 27.0 °F 85% 30.18 in 10.0 mi North 10.4 mph - N/A   Overcast
11:53 PM 30.9 °F 23.5 °F 27.0 °F 85% 30.17 in 10.0 mi NNW 8.1 mph - N/A   Mostly Cloudy